This is the latest recevied weather packets stored in our database for station/object EA1RCG-11. If no packets are shown the sender has not sent any weather packets the latest 10 day(s).
| Time | Temp. | Humidity | Pressure | Rain* | Wind** | Luminosity | Snow |
|---|---|---|---|---|---|---|---|
| 1778133894 | 12.78° C | 62% | 975.7 hPa | - | - | - | - |
| 1778132093 | 11.67° C | 64% | 975.7 hPa | - | - | - | - |
| 1778130293 | 11.67° C | 65% | 975.5 hPa | - | - | - | - |
| 1778128493 | 12.22° C | 65% | 975.7 hPa | - | - | - | - |
| 1778126693 | 12.22° C | 64% | 975.9 hPa | - | - | - | - |
| 1778124893 | 12.22° C | 64% | 976.1 hPa | - | - | - | - |
| 1778123093 | 12.78° C | 65% | 976.2 hPa | - | - | - | - |
| 1778121293 | 12.22° C | 65% | 976.3 hPa | - | - | - | - |
| 1778119493 | 12.78° C | 65% | 976.6 hPa | - | - | - | - |
| 1778117693 | 12.22° C | 66% | 976.7 hPa | - | - | - | - |
| 1778115892 | 12.78° C | 65% | 976.9 hPa | - | - | - | - |
| 1778114092 | 13.33° C | 65% | 977.1 hPa | - | - | - | - |
| 1778112291 | 14.44° C | 63% | 977.3 hPa | - | - | - | - |
| 1778110491 | 14.44° C | 63% | 977.6 hPa | - | - | - | - |
| 1778108690 | 14.44° C | 64% | 977.6 hPa | - | - | - | - |
| 1778106890 | 15° C | 63% | 977.8 hPa | - | - | - | - |
| 1778105089 | 15° C | 63% | 978 hPa | - | - | - | - |
| 1778103289 | 15° C | 63% | 978.1 hPa | - | - | - | - |
| 1778101488 | 15° C | 63% | 978.1 hPa | - | - | - | - |
| 1778099687 | 15.56° C | 63% | 978 hPa | - | - | - | - |
| 1778097886 | 15.56° C | 62% | 977.9 hPa | - | - | - | - |
| 1778096086 | 15.56° C | 63% | 977.7 hPa | - | - | - | - |
| 1778094286 | 15.56° C | 63% | 977.7 hPa | - | - | - | - |
| 1778092486 | 15.56° C | 63% | 977.4 hPa | - | - | - | - |
| 1778090686 | 16.67° C | 62% | 977.2 hPa | - | - | - | - |
* Rain since midnight (hover to see other rain measurements)
** Current wind speed in m/s (hover to see current wind gust speed)